SHIJIAN-17 (SJ-17) (41838 NORAD) Tracking and Keplerian Element Data

This shows tracking and keplerian element data for the satellite.

Feedback or suggestion? Click here.




ElementValue
Catalog41838
NameSHIJIAN-17 (SJ-17)
Epoch Orbit842
Epoch Day51.90196689
Epoch Year2019
RAAN97.9935
Inclination0.4999
Eccentricity0.0002535
Argument of Perigee279.3899
Mean Anonmoly192.036
Mean Motion1.00273622
Decay Rate-2.86E-06
L11 41838U 16065A 19051.90196689 -.00000286 00000-0 00000-0 0 9993
L22 41838 0.4999 97.9935 0002535 279.3899 192.0360 1.00273622 8429

Live tracking and technical data element details for SHIJIAN-17 (SJ-17) (NORAD 41838). SHIJIAN-17 (SJ-17) can be tracked NOW for your location showing map with azimuth and elevation plus other details from your city location.

Track the satellite on the map from your city or location and see movement details for azimuth, elevation, latitude, longitude, range, height, and movement on the map or in text.







IsCatalogInMostPopularTable: catalog: 41838, numindb: 189
Update: records affected: 1



GetName: 41838 SHIJIAN-17 (SJ-17)

Hit Count: updated at: Thu, 21 Feb 2019 12:30:25 GMT